Hourly Weather Kozinka

Today, 22 October, Thursday

Time Temperature Precipitation Wind Pressure Humidity
00:00 +4°C° 0 mm 1 mps 740 mmHg 98%
01:00 +4°C° 0 mm 1 mps 740 mmHg 98%
02:00 +4°C° 0 mm 1 mps 740 mmHg 98%
03:00 +3°C° 0 mm 2 mps 740 mmHg 98%
04:00 +3°C° 0 mm 2 mps 739 mmHg 98%
05:00 +3°C° 0 mm 2 mps 739 mmHg 98%
06:00 +4°C° 0 mm 2 mps 739 mmHg 97%
07:00 +3°C° 0 mm 3 mps 738 mmHg 96%
08:00 +4°C° 0 mm 3 mps 738 mmHg 94%
09:00 +4°C° 0.3 mm 3 mps 738 mmHg 94%
10:00 +4°C° 0.3 mm 4 mps 737 mmHg 93%
11:00 +5°C° 0.3 mm 4 mps 737 mmHg 92%
12:00 +5°C° 0.7 mm 4 mps 736 mmHg 93%
13:00 +5°C° 0.7 mm 4 mps 735 mmHg 93%
14:00 +6°C° 0.7 mm 4 mps 735 mmHg 94%
15:00 +6°C° 0.2 mm 5 mps 734 mmHg 94%
16:00 +6°C° 0.2 mm 5 mps 733 mmHg 93%
17:00 +6°C° 0.2 mm 5 mps 732 mmHg 93%
18:00 +7°C° 0.1 mm 5 mps 732 mmHg 92%
19:00 +8°C° 0.1 mm 5 mps 732 mmHg 92%
20:00 +8°C° 0.1 mm 5 mps 731 mmHg 91%
21:00 +9°C° 0.3 mm 5 mps 731 mmHg 90%
22:00 +9°C° 0.3 mm 6 mps 730 mmHg 88%
23:00 +10°C° 0.3 mm 6 mps 730 mmHg 87%

Tomorrow, 23 October, Friday

Time Temperature Precipitation Wind Pressure Humidity
00:00 +10°C° 0.1 mm 6 mps 731 mmHg 85%
01:00 +10°C° 0.1 mm 6 mps 731 mmHg 84%
02:00 +10°C° 0.1 mm 6 mps 732 mmHg 82%
03:00 +10°C° 0 mm 6 mps 732 mmHg 82%
04:00 +10°C° 0 mm 6 mps 732 mmHg 83%
05:00 +10°C° 0 mm 6 mps 732 mmHg 83%
06:00 +10°C° 0 mm 5 mps 732 mmHg 83%
07:00 +9°C° 0 mm 5 mps 733 mmHg 82%
08:00 +9°C° 0 mm 5 mps 733 mmHg 82%
09:00 +10°C° 0 mm 5 mps 733 mmHg 81%
10:00 +10°C° 0 mm 5 mps 733 mmHg 80%
11:00 +10°C° 0 mm 5 mps 733 mmHg 80%
12:00 +10°C° 0.3 mm 5 mps 732 mmHg 82%
13:00 +10°C° 0.3 mm 5 mps 732 mmHg 85%
14:00 +10°C° 0.3 mm 5 mps 732 mmHg 87%
15:00 +10°C° 1 mm 5 mps 731 mmHg 89%
16:00 +10°C° 1 mm 5 mps 731 mmHg 91%
17:00 +10°C° 1 mm 4 mps 730 mmHg 93%
18:00 +9°C° 0.4 mm 5 mps 730 mmHg 91%
19:00 +9°C° 0.4 mm 5 mps 730 mmHg 90%
20:00 +9°C° 0.4 mm 5 mps 730 mmHg 88%
21:00 +8°C° 0 mm 5 mps 731 mmHg 88%
22:00 +8°C° 0 mm 5 mps 731 mmHg 88%
23:00 +8°C° 0 mm 4 mps 731 mmHg 88%

Day after tomorrow, 24 October, Saturday

Time Temperature Precipitation Wind Pressure Humidity
00:00 +8°C° 0 mm 4 mps 732 mmHg 87%
01:00 +8°C° 0 mm 4 mps 732 mmHg 86%
02:00 +8°C° 0 mm 4 mps 733 mmHg 85%
03:00 +7°C° 0 mm 4 mps 733 mmHg 86%
04:00 +7°C° 0 mm 4 mps 734 mmHg 87%
05:00 +7°C° 0 mm 3 mps 734 mmHg 88%
06:00 +7°C° 0 mm 3 mps 734 mmHg 89%
07:00 +7°C° 0 mm 3 mps 734 mmHg 90%
08:00 +7°C° 0 mm 2 mps 735 mmHg 90%
09:00 +8°C° 0 mm 3 mps 735 mmHg 88%
10:00 +8°C° 0 mm 3 mps 735 mmHg 86%
11:00 +9°C° 0 mm 3 mps 735 mmHg 83%
12:00 +9°C° 0.1 mm 3 mps 735 mmHg 83%
13:00 +9°C° 0.1 mm 3 mps 735 mmHg 82%
14:00 +9°C° 0.1 mm 3 mps 735 mmHg 81%
15:00 +8°C° 0 mm 3 mps 735 mmHg 84%
16:00 +7°C° 0 mm 2 mps 735 mmHg 87%
17:00 +7°C° 0 mm 2 mps 735 mmHg 90%
18:00 +6°C° 0 mm 2 mps 735 mmHg 91%
19:00 +7°C° 0 mm 1 mps 735 mmHg 92%
20:00 +7°C° 0 mm 1 mps 735 mmHg 93%
21:00 +7°C° 0 mm 1 mps 735 mmHg 93%
22:00 +7°C° 0 mm 1 mps 735 mmHg 94%
23:00 +7°C° 0 mm 1 mps 735 mmHg 94%

, 25 October, Sunday

Time Temperature Precipitation Wind Pressure Humidity
00:00 +7°C° 0 mm 1 mps 735 mmHg 95%
01:00 +7°C° 0 mm 1 mps 735 mmHg 96%
02:00 +7°C° 0 mm 1 mps 735 mmHg 97%
03:00 +7°C° 0 mm 1 mps 735 mmHg 97%
04:00 +7°C° 0 mm 1 mps 735 mmHg 97%
05:00 +6°C° 0 mm 2 mps 735 mmHg 98%
06:00 +7°C° 0.1 mm 2 mps 735 mmHg 97%
07:00 +7°C° 0.1 mm 2 mps 735 mmHg 96%
08:00 +7°C° 0.1 mm 2 mps 735 mmHg 95%
09:00 +8°C° 0 mm 3 mps 735 mmHg 90%
10:00 +8°C° 0 mm 3 mps 736 mmHg 86%
11:00 +7°C° 0 mm 4 mps 736 mmHg 82%
12:00 +7°C° 0 mm 4 mps 737 mmHg 83%
13:00 +7°C° 0 mm 4 mps 737 mmHg 83%
14:00 +7°C° 0 mm 4 mps 738 mmHg 84%
15:00 +7°C° 0 mm 4 mps 738 mmHg 84%
16:00 +6°C° 0 mm 4 mps 739 mmHg 84%
17:00 +7°C° 0 mm 3 mps 740 mmHg 84%
18:00 +7°C° 0 mm 3 mps 740 mmHg 85%
19:00 +7°C° 0 mm 3 mps 741 mmHg 87%
20:00 +5°C° 0 mm 3 mps 741 mmHg 88%
21:00 +5°C° 0 mm 2 mps 742 mmHg 91%
22:00 +5°C° 0 mm 2 mps 742 mmHg 93%
23:00 +4°C° 0 mm 2 mps 742 mmHg 95%

25 October, Sunday

Time Temperature Precipitation Wind Pressure Humidity
00:00 +7°C° 0 mm 1 mps 735 mmHg 95%
01:00 +7°C° 0 mm 1 mps 735 mmHg 96%
02:00 +7°C° 0 mm 1 mps 735 mmHg 97%
03:00 +7°C° 0 mm 1 mps 735 mmHg 97%
04:00 +7°C° 0 mm 1 mps 735 mmHg 97%
05:00 +6°C° 0 mm 2 mps 735 mmHg 98%
06:00 +7°C° 0.1 mm 2 mps 735 mmHg 97%
07:00 +7°C° 0.1 mm 2 mps 735 mmHg 96%
08:00 +7°C° 0.1 mm 2 mps 735 mmHg 95%
09:00 +8°C° 0 mm 3 mps 735 mmHg 90%
10:00 +8°C° 0 mm 3 mps 736 mmHg 86%
11:00 +7°C° 0 mm 4 mps 736 mmHg 82%
12:00 +7°C° 0 mm 4 mps 737 mmHg 83%
13:00 +7°C° 0 mm 4 mps 737 mmHg 83%
14:00 +7°C° 0 mm 4 mps 738 mmHg 84%
15:00 +7°C° 0 mm 4 mps 738 mmHg 84%
16:00 +6°C° 0 mm 4 mps 739 mmHg 84%
17:00 +7°C° 0 mm 3 mps 740 mmHg 84%
18:00 +7°C° 0 mm 3 mps 740 mmHg 85%
19:00 +7°C° 0 mm 3 mps 741 mmHg 87%
20:00 +5°C° 0 mm 3 mps 741 mmHg 88%
21:00 +5°C° 0 mm 2 mps 742 mmHg 91%
22:00 +5°C° 0 mm 2 mps 742 mmHg 93%
23:00 +4°C° 0 mm 2 mps 742 mmHg 95%

26 October, Monday

Time Temperature Precipitation Wind Pressure Humidity
00:00 +5°C° 0 mm 1 mps 743 mmHg 95%
01:00 +4°C° 0 mm 1 mps 743 mmHg 95%
02:00 +4°C° 0 mm 1 mps 743 mmHg 95%
03:00 +4°C° 0 mm 1 mps 744 mmHg 95%
04:00 +4°C° 0 mm 1 mps 744 mmHg 95%
05:00 +2°C° 0 mm 0 mps 745 mmHg 95%
06:00 +4°C° 0 mm 1 mps 745 mmHg 94%
07:00 +4°C° 0 mm 1 mps 745 mmHg 93%
08:00 +4°C° 0 mm 1 mps 746 mmHg 92%
09:00 +5°C° 0 mm 1 mps 746 mmHg 86%
10:00 +7°C° 0 mm 1 mps 746 mmHg 80%
11:00 +8°C° 0 mm 1 mps 746 mmHg 75%
12:00 +9°C° 0 mm 1 mps 746 mmHg 74%
13:00 +9°C° 0 mm 1 mps 746 mmHg 73%
14:00 +9°C° 0 mm 1 mps 746 mmHg 72%
15:00 +8°C° 0 mm 1 mps 746 mmHg 78%
16:00 +7°C° 0 mm 1 mps 746 mmHg 83%
17:00 +6°C° 0 mm 1 mps 746 mmHg 89%
18:00 +6°C° 0 mm 1 mps 746 mmHg 90%
19:00 +5°C° 0 mm 1 mps 746 mmHg 91%
20:00 +4°C° 0 mm 2 mps 746 mmHg 93%
21:00 +4°C° 0 mm 2 mps 746 mmHg 93%
22:00 +4°C° 0 mm 2 mps 747 mmHg 93%
23:00 +3°C° 0 mm 2 mps 747 mmHg 93%

27 October, Tuesday

Time Temperature Precipitation Wind Pressure Humidity
00:00 +3°C° 0 mm 2 mps 746 mmHg 94%
01:00 +3°C° 0 mm 2 mps 746 mmHg 94%
02:00 +3°C° 0 mm 2 mps 746 mmHg 95%
03:00 +3°C° 0 mm 2 mps 746 mmHg 95%
04:00 +3°C° 0 mm 2 mps 746 mmHg 95%
05:00 +3°C° 0 mm 2 mps 746 mmHg 95%
06:00 +3°C° 0 mm 2 mps 746 mmHg 95%
07:00 +2°C° 0 mm 3 mps 746 mmHg 94%
08:00 +2°C° 0 mm 3 mps 746 mmHg 94%
09:00 +3°C° 0 mm 3 mps 746 mmHg 90%
10:00 +4°C° 0 mm 3 mps 746 mmHg 86%
11:00 +7°C° 0 mm 3 mps 746 mmHg 82%
12:00 +7°C° 0 mm 3 mps 746 mmHg 81%
13:00 +7°C° 0 mm 3 mps 745 mmHg 80%
14:00 +8°C° 0 mm 3 mps 745 mmHg 79%
15:00 +7°C° 0 mm 3 mps 745 mmHg 81%
16:00 +7°C° 0 mm 3 mps 745 mmHg 84%
17:00 +5°C° 0 mm 3 mps 745 mmHg 86%
18:00 +5°C° 0 mm 3 mps 745 mmHg 87%
19:00 +5°C° 0 mm 3 mps 745 mmHg 88%
20:00 +5°C° 0 mm 3 mps 744 mmHg 89%
21:00 +5°C° 0 mm 3 mps 744 mmHg 90%
22:00 +5°C° 0 mm 3 mps 744 mmHg 90%
23:00 +5°C° 0 mm 3 mps 744 mmHg 90%
Show more